Probability
65 58 74 71 52 45 55 68 52 35 35 35 16 23 23 39 35 23 39 61 58 52 52 45 48 52 48 48 45 32 35 32 35 35 32 29 16 10 16 16 19 23 16
71 52 77 74 58 48 48 52 39 55 42 29 23 29 29 19 32 35 32 55 58 68 58 58 52 52 48 48 42 45 39 35 26 35 32 26 23 13 10 16 16 19 16
87 74 61 71 65 68 71 65 48 48 55 35 35 23 35 39 29 29 29 29 45 52 61 65 61 61 55 58 52 48 42 39 35 42 42 23 16 19 23 19 19 23 23
77 84 68 61 81 61 65 65 71 58 45 45 42 29 32 42 29 29 26 32 39 35 45 58 65 58 65 55 55 52 55 48 39 42 42 29 26 19 16 16 13 19 19
74 77 77 81 81 68 65 55 48 55 58 45 32 48 32 42 48 29 29 32 39 45 48 58 61 61 58 55 52 52 52 55 45 39 39 35 23 16 19 10 10 10 13
65 71 71 81 74 68 71 77 74 77 74 68 23 32 39 42 45 39 32 32 39 32 39 32 58 55 55 55 58 55 52 48 48 39 35 32 26 26 13 16 10 10 6
65 71 52 68 74 71 65 58 55 58 61 65 58 55 52 35 35 39 35 39 32 35 42 48 55 58 65 42 42 58 52 42 52 52 45 42 29 29 32 16 10 10 6
65 55 65 52 61 74 74 71 68 58 48 48 48 52 39 23 45 16 29 52 42 39 32 32 39 55 55 58 42 32 39 42 48 42 45 42 42 42 26 29 13 10 10
65 58 61 58 58 55 74 71 61 55 48 45 45 39 35 19 26 19 32 32 39 42 35 26 29 39 45 52 52 26 35 39 35 35 39 48 45 35 35 23 23 19 10
65 58 61 58 58 55 61 55 52 61 58 48 52 45 39 35 29 19 19 19 26 32 35 35 29 32 39 42 48 23 10 16 23 29 39 35 39 35 35 32 29 29 13
61 58 58 61 55 55 52 52 55 55 55 45 42 39 32 39 32 39 23 26 16 26 29 32 29 32 35 35 39 26 6 3 6 13 19 26 26 23 16 16 26 19 19
71 55 58 61 61 61 58 55 55 55 65 52 58 42 39 32 29 29 26 29 29 23 29 26 19 29 35 35 29 0 3 0 0 0 0 10 13 13 10 10 10 10 13
61 68 55 55 61 65 65 65 52 52 58 55 48 42 45 39 35 35 29 19 19 13 29 23 23 19 19 26 32 0 0 0 0 0 0 0 0 0 10 6 10 10 10
52 61 58 61 61 61 48 52 52 45 45 42 29 45 55 42 32 29 29 26 19 16 26 23 13 13 19 19 19 0 13 0 0 0 0 0 0 0 0 0 0 0 6
58 58 61 58 61 58 61 61 58 52 52 35 29 35 35 32 29 26 23 19 23 13 23 23 23 13 19 29 3 10 19 0 0 0 0 0 0 0 0 0 0 0 0
68 68 61 55 52 55 58 65 58 55 55 52 39 35 35 23 29 29 13 16 26 23 19 13 26 3 13 3 0 10 10 0 0 0 0 0 0 0 0 0 0 0 0
65 68 68 58 52 52 52 52 42 42 39 32 29 29 32 32 29 26 26 16 16 16 23 19 16 6 13 16 10 16 6 10 10 0 0 0 0 0 0 0 0 0 0
61 61 58 55 48 45 42 39 42 35 39 42 29 26 23 19 23 29 29 19 26 23 19 19 13 10 13 13 10 10 3 0 6 0 0 0 0 0 0 0 0 0 0
61 55 58 48 48 48 42 42 39 39 39 39 32 35 32 19 19 16 19 13 13 10 23 23 26 13 6 10 6 0 0 3 0 0 0 0 0 0 0 0 0 0 0
55 58 55 48 45 42 39 35 35 35 32 32 35 29 26 19 19 13 13 13 10 13 16 23 19 13 10 6 3 3 0 0 3 0 0 0 0 0 0 0 0 0 0
55 52 45 39 39 32 26 26 29 32 32 29 26 23 16 6 3 10 6 10 6 6 10 19 13 6 6 10 6 6 3 3 0 0 0 0 0 0 0 0 0 0 0
45 45 45 39 26 23 16 13 19 26 29 29 29 16 13 10 6 0 0 0 3 6 10 13 10 10 6 6 6 6 6 3 3 3 3 0 3 3 0 0 0 0 0
52 45 42 39 32 19 16 3 3 23 16 26 26 19 10 10 3 6 0 0 0 0 0 10 6 10 10 6 3 3 3 3 3 3 0 0 3 3 0 0 0 0 0
52 42 39 32 29 16 10 3 0 10 16 19 23 23 13 13 6 10 6 3 0 0 0 0 6 6 6 6 3 3 3 3 3 3 3 3 0 0 0 3 0 0 0
52 42 35 26 29 13 10 0 0 10 19 16 16 16 10 13 6 0 6 6 3 3 0 0 0 0 0 0 0 0 0 0 0 0 0 0 0 0 0 3 0 0 0
42 42 32 29 23 23 10 0 0 13 16 16 19 19 6 6 3 0 0 6 6 6 6 0 0 0 0 0 0 0 0 0 0 0 0 0 0 0 0 0 0 0 0
Height
5896 5896 5897 5897 5898 5898 5899 5899 5900 5901 5901 5902 5902 5903 5903 5903 5904 5904 5904 5904 5904 5904 5904 5904 5904 5904 5904 5904 5904 5903 5903 5903 5902 5902 5902 5902 5902 5901 5901 5901 5901 5901 5901
5896 5897 5897 5898 5898 5899 5899 5899 5900 5901 5901 5902 5902 5903 5903 5903 5903 5904 5904 5904 5904 5904 5904 5904 5903 5903 5903 5903 5903 5903 5902 5902 5901 5901 5901 5900 5900 5900 5900 5899 5899 5899 5899
5896 5896 5897 5898 5898 5899 5899 5899 5900 5900 5901 5902 5902 5903 5903 5903 5903 5903 5903 5903 5903 5903 5903 5903 5903 5902 5902 5902 5902 5901 5901 5900 5900 5900 5899 5899 5898 5898 5898 5898 5897 5897 5897
5896 5896 5897 5898 5898 5898 5898 5899 5899 5900 5900 5901 5902 5902 5902 5902 5902 5902 5902 5902 5902 5902 5902 5902 5902 5901 5901 5901 5900 5900 5899 5899 5898 5898 5897 5897 5897 5896 5896 5896 5895 5895 5895
5897 5897 5897 5897 5897 5898 5898 5898 5899 5899 5900 5900 5901 5901 5901 5901 5901 5901 5901 5901 5901 5901 5901 5901 5900 5900 5900 5899 5899 5898 5898 5897 5896 5896 5895 5895 5894 5894 5894 5893 5893 5892 5892
5897 5896 5896 5896 5896 5897 5897 5898 5898 5899 5899 5899 5899 5900 5900 5900 5900 5900 5900 5900 5899 5899 5899 5899 5899 5898 5898 5897 5897 5896 5895 5895 5894 5894 5893 5893 5892 5892 5891 5891 5890 5890 5889
5896 5896 5896 5896 5896 5896 5896 5897 5897 5897 5898 5898 5898 5898 5898 5898 5898 5898 5898 5898 5897 5897 5897 5897 5897 5896 5896 5895 5894 5894 5893 5892 5891 5891 5890 5890 5889 5889 5888 5888 5887 5886 5886
5895 5895 5895 5895 5895 5895 5895 5896 5896 5896 5896 5897 5897 5897 5897 5897 5896 5896 5896 5896 5895 5895 5895 5894 5894 5893 5893 5892 5892 5891 5890 5889 5888 5888 5887 5886 5886 5885 5885 5884 5884 5883 5883
5895 5894 5894 5894 5894 5894 5894 5894 5894 5895 5895 5895 5895 5895 5895 5894 5894 5894 5893 5893 5893 5892 5892 5892 5891 5891 5890 5889 5888 5887 5887 5886 5885 5884 5884 5883 5882 5882 5881 5880 5880 5879 5879
5894 5894 5893 5893 5892 5892 5892 5892 5892 5892 5892 5892 5892 5892 5892 5892 5891 5891 5890 5890 5889 5889 5889 5888 5888 5887 5886 5885 5885 5884 5883 5882 5881 5881 5880 5879 5878 5878 5877 5876 5875 5875 5874
5893 5893 5892 5892 5891 5891 5890 5890 5890 5890 5889 5889 5889 5889 5889 5889 5888 5888 5887 5887 5886 5886 5885 5884 5884 5883 5882 5882 5881 5880 5879 5878 5877 5876 5876 5875 5874 5873 5873 5872 5871 5870 5869
5892 5891 5891 5890 5890 5889 5889 5888 5888 5888 5887 5887 5887 5887 5886 5886 5885 5885 5884 5883 5883 5882 5881 5880 5880 5879 5878 5877 5877 5876 5875 5874 5873 5872 5871 5870 5869 5868 5867 5867 5866 5865 5864
5891 5890 5889 5889 5889 5888 5887 5887 5886 5885 5885 5884 5884 5883 5883 5882 5882 5881 5880 5880 5879 5878 5877 5876 5876 5875 5874 5873 5872 5872 5870 5869 5868 5867 5866 5865 5864 5863 5862 5861 5860 5859 5859
5889 5888 5888 5887 5887 5886 5886 5885 5884 5883 5882 5882 5881 5880 5880 5879 5878 5877 5877 5876 5875 5874 5873 5872 5871 5870 5869 5868 5868 5867 5865 5864 5863 5862 5861 5860 5859 5858 5857 5855 5854 5854 5853
5888 5887 5886 5885 5885 5884 5884 5883 5882 5880 5879 5879 5878 5877 5876 5875 5874 5873 5872 5871 5871 5870 5869 5868 5866 5865 5864 5863 5862 5861 5860 5859 5858 5857 5855 5854 5853 5852 5851 5850 5849 5847 5846
5886 5885 5884 5883 5882 5882 5881 5880 5879 5878 5876 5875 5874 5873 5872 5870 5870 5869 5868 5867 5866 5865 5864 5863 5861 5860 5859 5858 5857 5855 5854 5853 5852 5851 5849 5848 5847 5846 5845 5844 5842 5841 5840
5884 5883 5882 5881 5880 5879 5878 5877 5876 5874 5873 5872 5871 5869 5868 5866 5865 5864 5863 5862 5861 5860 5859 5858 5856 5855 5853 5852 5851 5849 5848 5846 5845 5844 5843 5842 5840 5839 5838 5837 5836 5835 5833
5882 5881 5880 5878 5878 5876 5875 5874 5872 5871 5870 5868 5867 5865 5863 5862 5860 5859 5858 5857 5856 5855 5854 5852 5850 5849 5847 5846 5844 5843 5842 5840 5839 5837 5836 5835 5833 5832 5831 5830 5829 5827 5826
5879 5878 5877 5875 5874 5873 5872 5870 5869 5867 5866 5864 5862 5860 5859 5857 5856 5854 5853 5851 5850 5848 5847 5846 5844 5843 5841 5839 5838 5836 5835 5833 5831 5830 5828 5827 5826 5824 5823 5822 5821 5819 5818
5876 5875 5873 5872 5870 5869 5868 5866 5864 5863 5861 5860 5858 5856 5854 5852 5850 5848 5846 5845 5843 5842 5840 5839 5837 5836 5834 5833 5831 5829 5828 5826 5824 5823 5821 5820 5818 5817 5815 5814 5813 5812 5810
5872 5871 5870 5868 5866 5865 5863 5861 5860 5858 5856 5855 5852 5850 5848 5846 5844 5842 5840 5838 5837 5835 5833 5832 5830 5829 5827 5825 5824 5822 5820 5818 5817 5815 5814 5812 5810 5809 5807 5806 5805 5803 5802
5868 5866 5865 5864 5862 5860 5859 5857 5855 5853 5851 5849 5847 5845 5842 5840 5838 5836 5833 5831 5830 5828 5827 5825 5824 5822 5820 5818 5816 5814 5813 5811 5810 5808 5806 5804 5802 5801 5799 5798 5796 5795 5793
5862 5861 5860 5858 5857 5855 5853 5851 5849 5847 5845 5843 5841 5838 5836 5834 5831 5829 5827 5825 5823 5821 5820 5818 5816 5814 5813 5811 5809 5807 5805 5804 5802 5800 5798 5796 5794 5792 5790 5789 5787 5786 5784
5857 5855 5854 5852 5851 5849 5847 5846 5843 5841 5839 5837 5834 5832 5829 5827 5824 5822 5820 5818 5816 5814 5812 5811 5809 5807 5805 5803 5801 5799 5797 5796 5794 5792 5790 5788 5786 5784 5782 5780 5779 5777 5775
5851 5850 5848 5846 5845 5843 5841 5839 5837 5835 5833 5831 5828 5826 5823 5820 5818 5815 5813 5811 5808 5806 5804 5803 5801 5799 5797 5795 5793 5791 5789 5787 5786 5784 5782 5780 5778 5775 5773 5771 5770 5768 5766
5845 5843 5842 5840 5838 5837 5835 5832 5830 5829 5826 5824 5821 5819 5816 5813 5810 5808 5805 5803 5801 5799 5797 5795 5794 5792 5789 5787 5785 5783 5781 5779 5777 5775 5773 5771 5769 5767 5765 5763 5761 5759 5757
Wind_Speed
6 6 6 5 5 5 5 6 6 6 5 4 3 3 3 2 2 2 2 2 2 2 2 2 3 3 3 2 2 2 3 3 4 4 5 5 5 6 6 6 6 7 7
5 5 5 4 4 5 5 5 5 5 5 4 3 3 2 2 1 2 2 1 1 2 2 2 3 4 4 3 4 4 4 4 4 5 6 6 6 6 7 7 7 7 8
4 4 4 3 4 4 4 4 5 4 4 3 3 3 2 2 2 2 2 2 2 2 3 3 4 5 5 5 5 6 6 6 6 6 6 7 7 7 8 8 8 8 9
2 3 3 4 4 4 4 4 4 5 5 4 4 3 3 3 3 3 4 4 4 4 4 5 5 6 6 6 7 7 7 7 8 8 8 8 8 8 9 9 9 10 10
1 1 2 4 4 4 5 5 5 5 5 5 5 4 4 4 4 5 5 6 6 6 7 7 7 7 8 8 8 8 9 9 9 9 9 9 9 9 10 10 10 11 11
0 1 2 3 4 4 5 5 5 6 6 6 6 6 6 6 6 6 7 7 8 8 8 8 8 9 9 10 10 10 11 11 11 11 11 11 11 11 11 11 11 12 12
1 2 2 3 4 4 5 6 6 6 6 7 7 7 7 7 7 8 8 8 9 9 9 9 10 10 11 11 11 12 12 13 13 13 14 13 13 13 13 13 13 13 13
2 2 2 3 3 4 5 6 6 7 7 7 7 8 8 9 9 10 10 10 10 11 11 11 11 11 12 12 13 13 14 14 14 14 15 15 14 14 14 14 14 14 14
3 3 3 3 3 5 6 7 7 8 8 8 8 8 9 10 11 11 11 11 12 12 13 12 13 13 13 13 14 14 15 15 15 16 16 15 15 15 16 16 16 17 17
4 4 4 3 3 4 6 7 8 9 9 9 9 9 10 10 11 11 12 12 13 14 14 14 14 14 14 14 15 15 15 15 16 16 16 16 17 17 17 17 18 18 18
4 4 4 4 4 5 6 8 9 9 10 10 10 10 11 11 11 11 12 13 14 14 14 15 15 15 15 15 16 16 16 17 17 17 17 18 18 19 19 19 20 19 19
6 5 5 5 5 6 6 7 8 9 9 10 11 11 12 12 12 13 13 14 15 15 14 14 15 15 16 16 17 17 17 17 18 18 18 18 19 19 20 20 21 21 21
6 6 6 6 6 7 8 8 9 9 10 10 11 11 11 12 13 14 14 15 15 16 16 16 16 16 17 17 17 18 18 18 19 19 19 20 20 20 21 21 21 22 23
7 7 7 8 8 8 8 9 9 10 10 11 12 12 13 14 14 15 15 16 16 17 18 18 19 19 19 19 19 19 20 20 20 20 21 21 22 22 22 22 22 23 23
8 7 8 8 9 9 9 9 9 10 10 12 14 15 16 16 16 16 16 16 17 17 18 19 20 21 21 21 21 21 21 21 22 22 22 23 23 24 24 24 24 24 24
9 9 9 9 10 10 10 11 11 12 13 13 14 16 17 18 18 18 17 17 17 17 18 19 20 21 22 22 22 22 23 23 23 24 24 24 24 25 25 25 25 25 25
10 10 11 11 11 12 13 14 14 14 15 15 16 16 17 18 18 18 19 19 19 19 20 20 21 22 22 23 23 24 24 24 25 25 26 26 26 26 26 26 27 27 27
11 12 12 13 12 13 14 15 16 16 17 17 18 18 18 18 19 20 20 20 21 21 22 22 23 23 23 24 24 25 25 26 26 27 28 28 28 28 28 28 28 28 28
12 13 13 14 15 15 16 16 17 18 18 19 19 19 20 21 21 22 22 22 22 23 23 24 24 25 25 25 25 26 27 27 28 28 28 29 29 29 29 29 29 29 29
15 15 15 16 17 18 18 18 18 19 20 20 21 21 22 22 23 23 24 24 24 24 25 25 25 26 26 26 27 27 27 27 27 28 29 29 29 29 29 29 29 30 30
17 17 17 18 18 18 19 19 20 20 21 21 22 22 23 24 24 24 25 25 24 25 25 26 26 26 26 26 27 27 27 27 28 28 28 29 29 29 30 30 30 30 31
18 18 19 19 19 19 20 20 21 22 22 22 23 23 23 24 24 24 24 25 26 25 25 26 26 26 27 27 27 28 28 28 29 28 29 29 30 30 31 31 31 32 32
19 20 20 20 21 21 21 21 22 23 22 23 24 24 24 25 24 24 25 25 25 25 25 26 27 27 27 28 28 28 29 29 29 29 29 30 30 31 31 31 32 32 32
22 21 21 21 22 22 23 23 24 24 24 24 24 25 26 26 25 26 26 26 26 26 27 26 27 28 28 28 28 28 28 29 29 29 30 31 31 31 31 31 32 32 32
23 23 23 24 23 24 24 24 24 24 25 25 25 26 27 27 27 27 27 27 27 27 27 27 27 28 28 28 28 29 30 30 30 30 31 31 30 31 31 31 32 32 32
26 25 25 25 25 25 25 25 25 25 26 26 27 27 28 28 28 28 28 28 28 27 27 27 28 28 29 29 30 30 30 30 30 30 30 30 30 31 31 31 32 32 32
Wind_Direction
153 155 157 153 157 158 160 162 162 161 160 155 147 142 152 159 172 184 184 189 201 208 219 230 245 251 249 256 261 287 290 284 276 276 279 276 270 266 261 259 257 257 260
155 162 170 175 181 180 179 183 183 179 175 171 171 164 157 176 191 212 223 234 231 234 248 254 256 261 261 267 275 283 283 282 282 279 277 274 271 270 267 263 262 263 264
164 171 178 190 199 205 201 198 194 193 194 193 194 202 208 219 235 235 246 259 260 259 264 267 268 267 267 278 279 284 286 278 278 280 279 278 275 274 273 272 268 268 268
143 176 185 197 206 209 212 209 207 205 207 211 220 229 240 253 260 252 257 263 265 270 276 278 274 270 274 279 282 285 291 284 281 282 281 281 279 275 273 273 272 271 270
104 161 200 210 209 206 207 212 216 218 222 229 238 244 252 261 266 263 268 270 268 272 275 280 276 276 278 282 281 283 288 287 284 284 281 280 280 276 272 272 273 274 273
274 244 222 218 217 209 209 217 223 230 233 240 248 254 258 264 267 266 271 274 274 275 276 278 280 282 282 285 285 285 286 283 282 283 282 280 282 282 278 276 277 278 278
314 275 259 231 229 227 225 227 235 239 243 246 251 257 261 265 269 269 272 274 275 275 276 278 279 282 282 284 287 287 287 283 280 281 282 281 279 280 280 280 281 281 282
307 287 275 261 248 245 245 244 247 249 252 252 253 257 264 266 268 270 271 274 274 276 279 281 282 282 282 283 284 284 285 284 283 284 284 282 279 278 278 277 278 280 281
314 293 280 276 267 258 254 252 256 255 256 259 259 263 266 269 268 272 273 274 274 275 277 279 280 280 280 281 282 282 282 282 282 283 284 280 280 281 281 280 278 280 280
315 308 294 279 287 280 265 257 260 261 258 260 264 267 269 271 270 272 274 276 276 275 276 278 279 280 280 281 282 284 284 283 282 282 282 279 279 280 281 280 280 280 279
315 306 298 291 283 286 282 272 268 265 264 264 266 271 274 274 273 273 276 277 278 279 278 277 278 279 279 280 281 282 283 283 283 282 281 279 279 279 280 281 282 280 280
308 304 298 294 290 289 289 283 278 274 274 271 268 271 275 276 276 276 279 281 280 281 281 283 282 283 282 283 282 281 282 283 284 283 283 282 282 280 279 281 280 279 279
304 297 291 290 292 294 293 294 293 286 281 280 275 275 276 278 279 281 282 282 283 282 281 283 285 287 287 286 284 283 283 284 285 284 283 282 282 281 280 280 280 280 280
312 298 288 284 287 291 295 298 300 297 289 283 279 280 280 281 282 284 284 283 280 280 281 282 283 285 286 285 283 283 283 284 284 284 283 282 282 281 280 281 280 281 280
312 307 297 286 288 291 297 302 303 302 299 293 285 283 282 281 281 284 285 284 283 282 282 283 283 284 285 285 284 283 284 283 283 282 282 282 282 282 281 283 282 281 280
313 310 304 298 292 293 296 299 300 300 300 297 294 290 287 284 282 284 285 285 285 284 284 284 284 284 286 288 286 286 286 285 284 282 282 282 282 282 280 280 282 282 281
307 308 305 302 296 293 294 296 297 298 298 297 296 296 293 289 286 284 285 285 284 284 284 284 285 286 285 286 287 287 286 285 285 283 283 282 282 282 281 280 281 281 281
302 302 302 303 303 300 300 301 300 298 299 298 296 295 296 294 291 288 287 286 285 284 284 283 284 286 286 286 286 286 285 285 285 284 283 282 282 281 280 279 279 280 280
303 302 302 301 298 298 300 303 304 303 302 301 299 297 295 294 292 289 288 287 285 284 284 283 283 284 286 287 286 286 284 284 284 286 284 283 283 281 279 279 280 280 281
301 300 301 299 298 296 296 299 303 303 303 302 300 298 297 295 293 290 289 287 286 284 283 284 284 284 284 285 285 286 285 285 285 285 286 286 285 283 282 283 283 283 282
295 296 298 300 301 300 298 299 300 301 301 300 300 299 299 297 295 293 291 288 286 286 286 286 286 286 285 286 285 285 285 285 286 286 287 286 286 284 282 283 283 284 283
293 294 295 297 298 300 301 300 299 298 297 297 298 298 298 297 295 295 293 291 288 287 287 288 287 287 287 286 285 285 285 285 285 287 287 287 287 286 284 282 282 283 284
290 291 293 295 296 298 299 299 297 297 296 295 296 295 297 297 294 294 294 292 289 288 288 289 288 287 288 288 287 286 285 285 285 287 287 287 287 287 285 284 285 285 284
287 288 290 293 295 297 299 298 297 296 296 296 296 296 296 295 294 293 293 290 288 287 287 288 287 287 287 288 288 287 285 285 286 286 286 287 287 287 287 286 287 287 286
288 289 289 290 292 294 297 296 298 297 296 297 297 296 295 295 294 295 293 290 290 289 288 287 287 288 287 288 287 287 285 285 285 285 285 285 286 287 287 287 287 288 288
287 288 289 288 289 291 293 295 296 297 295 296 296 295 295 294 294 294 293 290 290 290 288 288 288 288 289 289 288 287 288 287 286 287 287 288 289 289 289 288 289 290 289